This demonstration page uses our WeatherBlox Daily Observations layout. Learn more.

Left ArrowRight Arrow

Hourly Observations for December 2, 2021

Temp ( °F °C ) Dew Point ( °F °C ) Humidity (%) Winds ( mph kmh ) Pressure ( in mb ) Visibility ( mi km ) Precip ( " mm )
12:54 am 00:54 Clear 51 10.6 30 -1.1 44 44 S 3 6 29.88 1012 10 16 N/A
1:54 am 01:54 Clear 52 11.1 30 -1.1 43 43 W 3 6 29.88 1012 10 16 N/A
2:54 am 02:54 Clear 53 11.7 31 -0.6 43 43 W 5 7 29.89 1012 10 16 N/A
3:54 am 03:54 Clear 52 11.1 32 undefined 47 47 W 6 9 29.89 1012 10 16 N/A
4:54 am 04:54 Clear 50 10 32 undefined 50 50 WNW 3 6 29.90 1013 10 16 N/A
5:54 am 05:54 Clear 44 6.7 32 undefined 63 63 SSE 5 7 29.92 1013 10 16 N/A
6:54 am 06:54 Clear 39 3.9 30 -1.1 70 70 N N/A 29.96 1015 10 16 N/A
7:54 am 07:54 Sunny 40 4.4 31 -0.6 70 70 N N/A 29.98 1015 10 16 N/A
8:54 am 08:54 Sunny 49 9.4 35 1.7 59 59 N N/A 30.01 1016 10 16 N/A
9:54 am 09:54 Sunny 55 12.8 36 2.2 49 49 N N/A 30.01 1016 10 16 N/A
10:54 am 10:54 Sunny 61 16.1 37 2.8 41 41 NNW 5 7 30.01 1016 10 16 N/A
11:54 am 11:54 Sunny 64 17.8 38 3.3 38 38 SW 3 6 29.98 1015 10 16 N/A
12:54 pm 12:54 Sunny 67 19.4 38 3.3 35 35 SSE 5 7 29.96 1015 10 16 N/A
1:54 pm 13:54 Sunny 70 21.1 40 4.4 34 34 SE 7 11 29.93 1014 10 16 N/A
2:54 pm 14:54 Sunny 70 21.1 40 4.4 34 34 SE 7 11 29.91 1013 10 16 N/A
3:54 pm 15:54 Sunny 68 20 40 4.4 36 36 SSE 8 13 29.91 1013 10 16 N/A
4:54 pm 16:54 Sunny 64 17.8 39 3.9 40 40 SE 7 11 29.90 1012 10 16 N/A
5:54 pm 17:54 Clear 56 13.3 38 3.3 51 51 SSE 8 13 29.90 1013 10 16 N/A
6:54 pm 18:54 Clear 56 13.3 38 3.3 51 51 S 3 6 29.89 1012 10 16 N/A
7:54 pm 19:54 Clear 54 12.2 37 2.8 53 53 SSE 5 7 29.90 1012 10 16 N/A
8:54 pm 20:54 Clear 54 12.2 37 2.8 53 53 S 6 9 29.89 1012 10 16 N/A
9:54 pm 21:54 Clear 51 10.6 37 2.8 59 59 SE 3 6 29.89 1012 10 16 N/A
10:54 pm 22:54 Clear 47 8.3 36 2.2 66 66 N N/A 29.87 1012 10 16 N/A
11:54 pm 23:54 Clear 44 6.7 35 1.7 71 71 N N/A 29.86 1011 10 16 N/A

Powered by AerisWeather